contact:dominique.lefevre@mio.osupytheas.fr, maurice.libes@osupytheas.fr, didier.mallarino@osupytheas.fr
Project:EMSO http://www.emso-fr.org/EMSO-France
Depth: 2436.0 m
Title:EMSO Ligure Ouest : Data MII capteur MICROCAT
DateTime_Computer,Latitude,Longitude,Temperature,Conductivity,Pressure,DateTime_Instrument
DateTime_Computer,Latitude,Longitude,degC,S m-1,dbar,DateTime_Instrument
2023-10-06T00:00:30Z,42.805,6.029,13.3056,4.60119,2470.763,2023-10-06T02:02:54Z
2023-10-06T00:03:33Z,42.805,6.029,13.3050,4.60114,2470.787,2023-10-06T02:05:57Z
2023-10-06T00:06:36Z,42.805,6.029,13.3056,4.60115,2470.787,2023-10-06T02:09:00Z
2023-10-06T00:09:39Z,42.805,6.029,13.3051,4.60115,2470.754,2023-10-06T02:12:03Z
2023-10-06T00:12:42Z,42.805,6.029,13.3056,4.60119,2470.777,2023-10-06T02:15:06Z
2023-10-06T00:15:45Z,42.805,6.029,13.3046,4.60116,2470.763,2023-10-06T02:18:09Z
2023-10-06T00:18:48Z,42.805,6.029,13.3054,4.60119,2470.763,2023-10-06T02:21:12Z
2023-10-06T00:21:51Z,42.805,6.029,13.3059,4.60118,2470.763,2023-10-06T02:24:15Z
2023-10-06T00:24:54Z,42.805,6.029,13.3051,4.60114,2470.74,2023-10-06T02:27:18Z
2023-10-06T00:27:57Z,42.805,6.029,13.3058,4.60129,2470.777,2023-10-06T02:30:21Z
2023-10-06T00:31:01Z,42.805,6.029,13.3052,4.60120,2470.763,2023-10-06T02:33:24Z
2023-10-06T00:34:04Z,42.805,6.029,13.3061,4.60110,2470.787,2023-10-06T02:36:27Z
2023-10-06T00:37:07Z,42.805,6.029,13.3046,4.60112,2470.74,2023-10-06T02:39:30Z
2023-10-06T00:40:10Z,42.805,6.029,13.3049,4.60107,2470.787,2023-10-06T02:42:34Z
2023-10-06T00:43:13Z,42.805,6.029,13.3046,4.60114,2470.763,2023-10-06T02:45:37Z
2023-10-06T00:46:16Z,42.805,6.029,13.3050,4.60111,2470.8,2023-10-06T02:48:40Z
2023-10-06T00:49:19Z,42.805,6.029,13.3043,4.60114,2470.777,2023-10-06T02:51:43Z
2023-10-06T00:52:22Z,42.805,6.029,13.3056,4.60113,2470.763,2023-10-06T02:54:46Z
2023-10-06T00:55:25Z,42.805,6.029,13.3056,4.60107,2470.754,2023-10-06T02:57:49Z
2023-10-06T00:58:28Z,42.805,6.029,13.3056,4.60116,2470.74,2023-10-06T03:00:52Z
2023-10-06T01:01:31Z,42.805,6.029,13.3053,4.60119,2470.74,2023-10-06T03:03:55Z
2023-10-06T01:04:34Z,42.805,6.029,13.3056,4.60114,2470.8,2023-10-06T03:06:58Z
2023-10-06T01:07:37Z,42.805,6.029,13.3051,4.60110,2470.754,2023-10-06T03:10:01Z
2023-10-06T01:10:41Z,42.805,6.029,13.3054,4.60117,2470.717,2023-10-06T03:13:04Z
2023-10-06T01:13:44Z,42.805,6.029,13.3051,4.60121,2470.74,2023-10-06T03:16:07Z
2023-10-06T01:16:47Z,42.805,6.029,13.3052,4.60112,2470.754,2023-10-06T03:19:10Z
2023-10-06T01:19:50Z,42.805,6.029,13.3048,4.60114,2470.74,2023-10-06T03:22:13Z
2023-10-06T01:22:53Z,42.805,6.029,13.3054,4.60112,2470.777,2023-10-06T03:25:17Z
2023-10-06T01:25:56Z,42.805,6.029,13.3054,4.60115,2470.74,2023-10-06T03:28:20Z
2023-10-06T01:28:59Z,42.805,6.029,13.3054,4.60114,2470.754,2023-10-06T03:31:23Z
2023-10-06T01:32:02Z,42.805,6.029,13.3054,4.60119,2470.74,2023-10-06T03:34:26Z
2023-10-06T01:35:05Z,42.805,6.029,13.3058,4.60112,2470.73,2023-10-06T03:37:29Z
2023-10-06T01:38:08Z,42.805,6.029,13.3054,4.60107,2470.717,2023-10-06T03:40:32Z
2023-10-06T01:41:11Z,42.805,6.029,13.3047,4.60114,2470.763,2023-10-06T03:43:35Z
2023-10-06T01:44:14Z,42.805,6.029,13.3052,4.60114,2470.74,2023-10-06T03:46:38Z
2023-10-06T01:47:17Z,42.805,6.029,13.3051,4.60111,2470.717,2023-10-06T03:49:41Z
2023-10-06T01:50:21Z,42.805,6.029,13.3054,4.60103,2470.73,2023-10-06T03:52:44Z
2023-10-06T01:53:24Z,42.805,6.029,13.3060,4.60114,2470.73,2023-10-06T03:55:47Z
2023-10-06T01:56:27Z,42.805,6.029,13.3062,4.60115,2470.74,2023-10-06T03:58:50Z
2023-10-06T01:59:30Z,42.805,6.029,13.3051,4.60113,2470.74,2023-10-06T04:01:54Z
2023-10-06T02:02:33Z,42.805,6.029,13.3050,4.60119,2470.717,2023-10-06T04:04:57Z
2023-10-06T02:05:36Z,42.805,6.029,13.3050,4.60116,2470.74,2023-10-06T04:08:00Z
2023-10-06T02:08:39Z,42.805,6.029,13.3056,4.60112,2470.754,2023-10-06T04:11:03Z
2023-10-06T02:11:42Z,42.805,6.029,13.3044,4.60106,2470.717,2023-10-06T04:14:06Z
2023-10-06T02:14:45Z,42.805,6.029,13.3050,4.60116,2470.763,2023-10-06T04:17:09Z
2023-10-06T02:17:48Z,42.805,6.029,13.3056,4.60114,2470.717,2023-10-06T04:20:12Z
2023-10-06T02:20:51Z,42.805,6.029,13.3046,4.60115,2470.693,2023-10-06T04:23:15Z
2023-10-06T02:23:54Z,42.805,6.029,13.3048,4.60109,2470.717,2023-10-06T04:26:18Z
2023-10-06T02:26:57Z,42.805,6.029,13.3049,4.60112,2470.717,2023-10-06T04:29:21Z
2023-10-06T02:30:01Z,42.805,6.029,13.3054,4.60115,2470.693,2023-10-06T04:32:24Z
2023-10-06T02:33:04Z,42.805,6.029,13.3044,4.60109,2470.717,2023-10-06T04:35:27Z
2023-10-06T02:36:07Z,42.805,6.029,13.3050,4.60110,2470.707,2023-10-06T04:38:30Z
2023-10-06T02:39:10Z,42.805,6.029,13.3049,4.60116,2470.74,2023-10-06T04:41:33Z
2023-10-06T02:42:13Z,42.805,6.029,13.3061,4.60109,2470.693,2023-10-06T04:44:37Z
2023-10-06T02:45:16Z,42.805,6.029,13.3053,4.60115,2470.74,2023-10-06T04:47:40Z
2023-10-06T02:48:19Z,42.805,6.029,13.3056,4.60120,2470.754,2023-10-06T04:50:43Z
2023-10-06T02:51:22Z,42.805,6.029,13.3058,4.60119,2470.693,2023-10-06T04:53:46Z
2023-10-06T02:54:25Z,42.805,6.029,13.3058,4.60110,2470.693,2023-10-06T04:56:49Z
2023-10-06T02:57:28Z,42.805,6.029,13.3059,4.60120,2470.717,2023-10-06T04:59:52Z
2023-10-06T03:00:31Z,42.805,6.029,13.3060,4.60125,2470.693,2023-10-06T05:02:55Z
2023-10-06T03:03:34Z,42.805,6.029,13.3049,4.60111,2470.73,2023-10-06T05:05:58Z
2023-10-06T03:06:37Z,42.805,6.029,13.3052,4.60116,2470.707,2023-10-06T05:09:01Z
2023-10-06T03:09:41Z,42.805,6.029,13.3057,4.60119,2470.74,2023-10-06T05:12:04Z
2023-10-06T03:12:44Z,42.805,6.029,13.3051,4.60117,2470.73,2023-10-06T05:15:07Z
2023-10-06T03:15:47Z,42.805,6.029,13.3055,4.60115,2470.74,2023-10-06T05:18:10Z
2023-10-06T03:18:50Z,42.805,6.029,13.3059,4.60113,2470.73,2023-10-06T05:21:13Z
2023-10-06T03:21:53Z,42.805,6.029,13.3055,4.60131,2470.717,2023-10-06T05:24:17Z
2023-10-06T03:24:56Z,42.805,6.029,13.3056,4.60117,2470.693,2023-10-06T05:27:20Z
2023-10-06T03:27:59Z,42.805,6.029,13.3063,4.60114,2470.73,2023-10-06T05:30:23Z
2023-10-06T03:31:02Z,42.805,6.029,13.3051,4.60114,2470.717,2023-10-06T05:33:26Z
2023-10-06T03:34:05Z,42.805,6.029,13.3052,4.60108,2470.693,2023-10-06T05:36:29Z
2023-10-06T03:37:08Z,42.805,6.029,13.3050,4.60118,2470.717,2023-10-06T05:39:32Z
2023-10-06T03:40:11Z,42.805,6.029,13.3054,4.60108,2470.707,2023-10-06T05:42:35Z
2023-10-06T03:43:14Z,42.805,6.029,13.3054,4.60104,2470.693,2023-10-06T05:45:38Z
2023-10-06T03:46:17Z,42.805,6.029,13.3055,4.60113,2470.707,2023-10-06T05:48:41Z
2023-10-06T03:49:20Z,42.805,6.029,13.3053,4.60119,2470.717,2023-10-06T05:51:44Z
2023-10-06T03:52:24Z,42.805,6.029,13.3052,4.60125,2470.717,2023-10-06T05:54:47Z
2023-10-06T03:55:27Z,42.805,6.029,13.3058,4.60132,2470.717,2023-10-06T05:57:50Z
2023-10-06T03:58:30Z,42.805,6.029,13.3061,4.60123,2470.67,2023-10-06T06:00:53Z
2023-10-06T04:01:33Z,42.805,6.029,13.3057,4.60121,2470.656,2023-10-06T06:03:57Z
2023-10-06T04:04:36Z,42.805,6.029,13.3055,4.60116,2470.717,2023-10-06T06:07:00Z
2023-10-06T04:07:39Z,42.805,6.029,13.3056,4.60109,2470.707,2023-10-06T06:10:03Z
2023-10-06T04:10:42Z,42.805,6.029,13.3048,4.60113,2470.707,2023-10-06T06:13:06Z
2023-10-06T04:13:45Z,42.805,6.029,13.3048,4.60110,2470.693,2023-10-06T06:16:09Z
2023-10-06T04:16:48Z,42.805,6.029,13.3055,4.60121,2470.707,2023-10-06T06:19:12Z
2023-10-06T04:19:51Z,42.805,6.029,13.3049,4.60117,2470.707,2023-10-06T06:22:15Z
2023-10-06T04:22:54Z,42.805,6.029,13.3055,4.60110,2470.693,2023-10-06T06:25:18Z
2023-10-06T04:25:57Z,42.805,6.029,13.3046,4.60107,2470.693,2023-10-06T06:28:21Z
2023-10-06T04:29:00Z,42.805,6.029,13.3051,4.60119,2470.693,2023-10-06T06:31:24Z
2023-10-06T04:32:03Z,42.805,6.029,13.3048,4.60113,2470.707,2023-10-06T06:34:26Z
2023-10-06T04:35:06Z,42.805,6.029,13.3047,4.60121,2470.693,2023-10-06T06:37:29Z
2023-10-06T04:38:09Z,42.805,6.029,13.3052,4.60113,2470.693,2023-10-06T06:40:32Z
2023-10-06T04:41:12Z,42.805,6.029,13.3058,4.60122,2470.707,2023-10-06T06:43:36Z
2023-10-06T04:44:15Z,42.805,6.029,13.3047,4.60118,2470.67,2023-10-06T06:46:39Z
2023-10-06T04:47:18Z,42.805,6.029,13.3057,4.60114,2470.693,2023-10-06T06:49:42Z
2023-10-06T04:50:21Z,42.805,6.029,13.3051,4.60118,2470.717,2023-10-06T06:52:45Z
2023-10-06T04:53:24Z,42.805,6.029,13.3054,4.60117,2470.693,2023-10-06T06:55:48Z
2023-10-06T04:56:27Z,42.805,6.029,13.3056,4.60122,2470.707,2023-10-06T06:58:51Z
2023-10-06T04:59:30Z,42.805,6.029,13.3056,4.60116,2470.684,2023-10-06T07:01:54Z
2023-10-06T05:02:33Z,42.805,6.029,13.3060,4.60108,2470.693,2023-10-06T07:04:57Z
2023-10-06T05:05:36Z,42.805,6.029,13.3051,4.60111,2470.707,2023-10-06T07:08:00Z
2023-10-06T05:08:39Z,42.805,6.029,13.3054,4.60114,2470.693,2023-10-06T07:11:03Z
2023-10-06T05:11:43Z,42.805,6.029,13.3061,4.60123,2470.693,2023-10-06T07:14:06Z
2023-10-06T05:14:46Z,42.805,6.029,13.3051,4.60122,2470.693,2023-10-06T07:17:09Z
2023-10-06T05:17:49Z,42.805,6.029,13.3063,4.60119,2470.717,2023-10-06T07:20:12Z
2023-10-06T05:20:52Z,42.805,6.029,13.3054,4.60132,2470.717,2023-10-06T07:23:16Z
2023-10-06T05:23:55Z,42.805,6.029,13.3058,4.60112,2470.684,2023-10-06T07:26:19Z
2023-10-06T05:26:58Z,42.805,6.029,13.3056,4.60115,2470.67,2023-10-06T07:29:22Z
2023-10-06T05:30:01Z,42.805,6.029,13.3056,4.60115,2470.67,2023-10-06T07:32:25Z
2023-10-06T05:33:04Z,42.805,6.029,13.3063,4.60122,2470.67,2023-10-06T07:35:28Z
2023-10-06T05:36:07Z,42.805,6.029,13.3042,4.60110,2470.707,2023-10-06T07:38:31Z
2023-10-06T05:39:10Z,42.805,6.029,13.3058,4.60115,2470.693,2023-10-06T07:41:34Z
2023-10-06T05:42:13Z,42.805,6.029,13.3054,4.60118,2470.693,2023-10-06T07:44:37Z
2023-10-06T05:45:16Z,42.805,6.029,13.3051,4.60124,2470.707,2023-10-06T07:47:40Z
2023-10-06T05:48:19Z,42.805,6.029,13.3048,4.60125,2470.73,2023-10-06T07:50:43Z
2023-10-06T05:51:23Z,42.805,6.029,13.3063,4.60111,2470.67,2023-10-06T07:53:46Z
2023-10-06T05:54:26Z,42.805,6.029,13.3057,4.60113,2470.656,2023-10-06T07:56:49Z
2023-10-06T05:57:29Z,42.805,6.029,13.3049,4.60110,2470.693,2023-10-06T07:59:52Z
2023-10-06T06:00:32Z,42.805,6.029,13.3057,4.60117,2470.717,2023-10-06T08:02:56Z
2023-10-06T06:03:35Z,42.805,6.029,13.3054,4.60117,2470.693,2023-10-06T08:05:59Z
2023-10-06T06:06:38Z,42.805,6.029,13.3058,4.60121,2470.684,2023-10-06T08:09:02Z
2023-10-06T06:09:41Z,42.805,6.029,13.3055,4.60110,2470.693,2023-10-06T08:12:05Z
2023-10-06T06:12:44Z,42.805,6.029,13.3061,4.60122,2470.707,2023-10-06T08:15:08Z
2023-10-06T06:15:47Z,42.805,6.029,13.3053,4.60109,2470.717,2023-10-06T08:18:11Z
2023-10-06T06:18:50Z,42.805,6.029,13.3058,4.60112,2470.693,2023-10-06T08:21:14Z
2023-10-06T06:21:53Z,42.805,6.029,13.3058,4.60112,2470.67,2023-10-06T08:24:17Z
2023-10-06T06:24:56Z,42.805,6.029,13.3048,4.60111,2470.693,2023-10-06T08:27:20Z
2023-10-06T06:27:59Z,42.805,6.029,13.3052,4.60123,2470.693,2023-10-06T08:30:23Z
2023-10-06T06:31:03Z,42.805,6.029,13.3053,4.60119,2470.717,2023-10-06T08:33:26Z
2023-10-06T06:34:06Z,42.805,6.029,13.3055,4.60120,2470.693,2023-10-06T08:36:29Z
2023-10-06T06:37:09Z,42.805,6.029,13.3058,4.60123,2470.693,2023-10-06T08:39:32Z
2023-10-06T06:40:12Z,42.805,6.029,13.3058,4.60120,2470.73,2023-10-06T08:42:36Z
2023-10-06T06:43:15Z,42.805,6.029,13.3063,4.60125,2470.693,2023-10-06T08:45:39Z
2023-10-06T06:46:18Z,42.805,6.029,13.3061,4.60117,2470.717,2023-10-06T08:48:42Z
2023-10-06T06:49:21Z,42.805,6.029,13.3055,4.60115,2470.693,2023-10-06T08:51:45Z
2023-10-06T06:52:24Z,42.805,6.029,13.3061,4.60122,2470.707,2023-10-06T08:54:48Z
2023-10-06T06:55:27Z,42.805,6.029,13.3058,4.60110,2470.67,2023-10-06T08:57:51Z
2023-10-06T06:58:30Z,42.805,6.029,13.3048,4.60110,2470.717,2023-10-06T09:00:54Z
2023-10-06T07:01:33Z,42.805,6.029,13.3051,4.60118,2470.73,2023-10-06T09:03:57Z
2023-10-06T07:04:36Z,42.805,6.029,13.3061,4.60119,2470.721,2023-10-06T09:07:00Z
2023-10-06T07:07:39Z,42.805,6.029,13.3045,4.60106,2470.693,2023-10-06T09:10:03Z
2023-10-06T07:10:43Z,42.805,6.029,13.3051,4.60113,2470.73,2023-10-06T09:13:06Z
2023-10-06T07:13:46Z,42.805,6.029,13.3048,4.60114,2470.707,2023-10-06T09:16:09Z
2023-10-06T07:16:49Z,42.805,6.029,13.3057,4.60119,2470.717,2023-10-06T09:19:12Z
2023-10-06T07:19:52Z,42.805,6.029,13.3052,4.60111,2470.73,2023-10-06T09:22:16Z
2023-10-06T07:22:55Z,42.805,6.029,13.3053,4.60115,2470.693,2023-10-06T09:25:19Z
2023-10-06T07:25:58Z,42.805,6.029,13.3055,4.60120,2470.717,2023-10-06T09:28:22Z
2023-10-06T07:29:01Z,42.805,6.029,13.3057,4.60120,2470.754,2023-10-06T09:31:25Z
2023-10-06T07:32:04Z,42.805,6.029,13.3065,4.60104,2470.684,2023-10-06T09:34:28Z
2023-10-06T07:35:07Z,42.805,6.029,13.3056,4.60125,2470.754,2023-10-06T09:37:31Z
2023-10-06T07:38:10Z,42.805,6.029,13.3058,4.60125,2470.693,2023-10-06T09:40:34Z
2023-10-06T07:41:13Z,42.805,6.029,13.3055,4.60117,2470.74,2023-10-06T09:43:37Z
2023-10-06T07:44:16Z,42.805,6.029,13.3057,4.60126,2470.73,2023-10-06T09:46:40Z
2023-10-06T07:47:19Z,42.805,6.029,13.3053,4.60119,2470.717,2023-10-06T09:49:43Z
2023-10-06T07:50:23Z,42.805,6.029,13.3058,4.60119,2470.717,2023-10-06T09:52:46Z
2023-10-06T07:53:26Z,42.805,6.029,13.3056,4.60119,2470.717,2023-10-06T09:55:49Z
2023-10-06T07:56:29Z,42.805,6.029,13.3051,4.60114,2470.717,2023-10-06T09:58:52Z
2023-10-06T07:59:32Z,42.805,6.029,13.3058,4.60119,2470.717,2023-10-06T10:01:56Z
2023-10-06T08:02:35Z,42.805,6.029,13.3056,4.60117,2470.74,2023-10-06T10:04:59Z
2023-10-06T08:05:38Z,42.805,6.029,13.3051,4.60114,2470.74,2023-10-06T10:08:02Z
2023-10-06T08:08:41Z,42.805,6.029,13.3056,4.60119,2470.73,2023-10-06T10:11:05Z
2023-10-06T08:11:44Z,42.805,6.029,13.3061,4.60114,2470.74,2023-10-06T10:14:08Z
2023-10-06T08:14:47Z,42.805,6.029,13.3056,4.60114,2470.73,2023-10-06T10:17:11Z
2023-10-06T08:17:50Z,42.805,6.029,13.3049,4.60107,2470.693,2023-10-06T10:20:14Z
2023-10-06T08:20:53Z,42.805,6.029,13.3053,4.60111,2470.693,2023-10-06T10:23:17Z
2023-10-06T08:23:56Z,42.805,6.029,13.3051,4.60126,2470.74,2023-10-06T10:26:20Z
2023-10-06T08:26:59Z,42.805,6.029,13.3061,4.60114,2470.73,2023-10-06T10:29:23Z
2023-10-06T08:30:03Z,42.805,6.029,13.3055,4.60140,2470.703,2023-10-06T10:32:26Z
2023-10-06T08:33:06Z,42.805,6.029,13.3059,4.60127,2470.754,2023-10-06T10:35:29Z
2023-10-06T08:36:09Z,42.805,6.029,13.3056,4.60123,2470.717,2023-10-06T10:38:33Z
2023-10-06T08:39:12Z,42.805,6.029,13.3067,4.60122,2470.754,2023-10-06T10:41:36Z
2023-10-06T08:42:15Z,42.805,6.029,13.3056,4.60117,2470.74,2023-10-06T10:44:39Z
2023-10-06T08:45:18Z,42.805,6.029,13.3054,4.60114,2470.754,2023-10-06T10:47:42Z
2023-10-06T08:48:21Z,42.805,6.029,13.3052,4.60120,2470.717,2023-10-06T10:50:45Z
2023-10-06T08:51:24Z,42.805,6.029,13.3061,4.60119,2470.74,2023-10-06T10:53:48Z
2023-10-06T08:54:27Z,42.805,6.029,13.3061,4.60129,2470.754,2023-10-06T10:56:51Z
2023-10-06T08:57:30Z,42.805,6.029,13.3057,4.60110,2470.754,2023-10-06T10:59:54Z
2023-10-06T09:00:33Z,42.805,6.029,13.3056,4.60120,2470.74,2023-10-06T11:02:57Z
2023-10-06T09:03:36Z,42.805,6.029,13.3059,4.60121,2470.763,2023-10-06T11:06:00Z
2023-10-06T09:06:40Z,42.805,6.029,13.3059,4.60113,2470.777,2023-10-06T11:09:03Z
2023-10-06T09:09:43Z,42.805,6.029,13.3054,4.60114,2470.74,2023-10-06T11:12:06Z
2023-10-06T09:12:46Z,42.805,6.029,13.3065,4.60117,2470.787,2023-10-06T11:15:09Z
2023-10-06T09:15:49Z,42.805,6.029,13.3063,4.60114,2470.787,2023-10-06T11:18:13Z
2023-10-06T09:18:52Z,42.805,6.029,13.3060,4.60122,2470.763,2023-10-06T11:21:16Z
2023-10-06T09:21:55Z,42.805,6.029,13.3060,4.60114,2470.777,2023-10-06T11:24:19Z
2023-10-06T09:24:58Z,42.805,6.029,13.3051,4.60122,2470.8,2023-10-06T11:27:22Z
2023-10-06T09:28:01Z,42.805,6.029,13.3051,4.60134,2470.787,2023-10-06T11:30:25Z
2023-10-06T09:31:04Z,42.805,6.029,13.3060,4.60122,2470.777,2023-10-06T11:33:28Z
2023-10-06T09:34:07Z,42.805,6.029,13.3051,4.60117,2470.74,2023-10-06T11:36:31Z
2023-10-06T09:37:10Z,42.805,6.029,13.3051,4.60122,2470.787,2023-10-06T11:39:34Z
2023-10-06T09:40:13Z,42.805,6.029,13.3058,4.60118,2470.787,2023-10-06T11:42:37Z
2023-10-06T09:43:17Z,42.805,6.029,13.3061,4.60123,2470.763,2023-10-06T11:45:40Z
2023-10-06T09:46:20Z,42.805,6.029,13.3065,4.60128,2470.8,2023-10-06T11:48:43Z
2023-10-06T09:49:23Z,42.805,6.029,13.3069,4.60122,2470.763,2023-10-06T11:51:46Z
2023-10-06T09:52:26Z,42.805,6.029,13.3055,4.60110,2470.8,2023-10-06T11:54:50Z
2023-10-06T09:55:29Z,42.805,6.029,13.3066,4.60113,2470.824,2023-10-06T11:57:53Z
2023-10-06T09:58:32Z,42.805,6.029,13.3060,4.60112,2470.8,2023-10-06T12:00:56Z
2023-10-06T10:01:35Z,42.805,6.029,13.3044,4.60125,2470.787,2023-10-06T12:03:59Z
2023-10-06T10:04:38Z,42.805,6.029,13.3053,4.60112,2470.787,2023-10-06T12:07:02Z
2023-10-06T10:07:41Z,42.805,6.029,13.3051,4.60123,2470.8,2023-10-06T12:10:05Z
2023-10-06T10:10:44Z,42.805,6.029,13.3061,4.60125,2470.787,2023-10-06T12:13:08Z
2023-10-06T10:13:47Z,42.805,6.029,13.3054,4.60125,2470.8,2023-10-06T12:16:11Z
2023-10-06T10:16:50Z,42.805,6.029,13.3069,4.60123,2470.787,2023-10-06T12:19:14Z
2023-10-06T10:19:53Z,42.805,6.029,13.3048,4.60114,2470.833,2023-10-06T12:22:17Z
2023-10-06T10:22:57Z,42.805,6.029,13.3056,4.60127,2470.81,2023-10-06T12:25:20Z
2023-10-06T10:26:00Z,42.805,6.029,13.3060,4.60118,2470.8,2023-10-06T12:28:23Z
2023-10-06T10:29:03Z,42.805,6.029,13.3061,4.60125,2470.824,2023-10-06T12:31:26Z
2023-10-06T10:32:06Z,42.805,6.029,13.3063,4.60116,2470.787,2023-10-06T12:34:30Z
2023-10-06T10:35:09Z,42.805,6.029,13.3054,4.60110,2470.787,2023-10-06T12:37:33Z
2023-10-06T10:38:12Z,42.805,6.029,13.3056,4.60117,2470.8,2023-10-06T12:40:36Z
2023-10-06T10:41:15Z,42.805,6.029,13.3060,4.60125,2470.787,2023-10-06T12:43:39Z
2023-10-06T10:44:18Z,42.805,6.029,13.3067,4.60130,2470.81,2023-10-06T12:46:42Z
2023-10-06T10:47:21Z,42.805,6.029,13.3075,4.60123,2470.824,2023-10-06T12:49:45Z
2023-10-06T10:50:24Z,42.805,6.029,13.3069,4.60129,2470.81,2023-10-06T12:52:48Z
2023-10-06T10:53:27Z,42.805,6.029,13.3063,4.60125,2470.8,2023-10-06T12:55:51Z
2023-10-06T10:56:30Z,42.805,6.029,13.3067,4.60125,2470.81,2023-10-06T12:58:54Z
2023-10-06T10:59:34Z,42.805,6.029,13.3063,4.60120,2470.81,2023-10-06T13:01:57Z
2023-10-06T11:02:37Z,42.805,6.029,13.3061,4.60127,2470.82,2023-10-06T13:05:00Z
2023-10-06T11:05:40Z,42.805,6.029,13.3057,4.60123,2470.824,2023-10-06T13:08:03Z
2023-10-06T11:08:43Z,42.805,6.029,13.3073,4.60119,2470.81,2023-10-06T13:11:07Z
2023-10-06T11:11:46Z,42.805,6.029,13.3059,4.60131,2470.824,2023-10-06T13:14:10Z
2023-10-06T11:14:49Z,42.805,6.029,13.3049,4.60124,2470.824,2023-10-06T13:17:13Z
2023-10-06T11:17:52Z,42.805,6.029,13.3043,4.60125,2470.81,2023-10-06T13:20:16Z
2023-10-06T11:20:55Z,42.805,6.029,13.3061,4.60121,2470.824,2023-10-06T13:23:19Z
2023-10-06T11:23:58Z,42.805,6.029,13.3055,4.60117,2470.8,2023-10-06T13:26:22Z
2023-10-06T11:27:01Z,42.805,6.029,13.3049,4.60121,2470.81,2023-10-06T13:29:25Z
2023-10-06T11:30:04Z,42.805,6.029,13.3063,4.60126,2470.824,2023-10-06T13:32:28Z
2023-10-06T11:33:07Z,42.805,6.029,13.3060,4.60129,2470.824,2023-10-06T13:35:31Z
2023-10-06T11:36:10Z,42.805,6.029,13.3055,4.60122,2470.833,2023-10-06T13:38:34Z
2023-10-06T11:39:14Z,42.805,6.029,13.3061,4.60129,2470.824,2023-10-06T13:41:37Z
2023-10-06T11:42:17Z,42.805,6.029,13.3064,4.60117,2470.81,2023-10-06T13:44:40Z
2023-10-06T11:45:20Z,42.805,6.029,13.3052,4.60131,2470.824,2023-10-06T13:47:44Z
2023-10-06T11:48:23Z,42.805,6.029,13.3061,4.60126,2470.847,2023-10-06T13:50:47Z
2023-10-06T11:51:26Z,42.805,6.029,13.3061,4.60128,2470.787,2023-10-06T13:53:50Z
2023-10-06T11:54:29Z,42.805,6.029,13.3064,4.60119,2470.81,2023-10-06T13:56:53Z
2023-10-06T11:57:32Z,42.805,6.029,13.3061,4.60122,2470.81,2023-10-06T13:59:56Z
2023-10-06T12:00:35Z,42.805,6.029,13.3062,4.60120,2470.787,2023-10-06T14:02:59Z
2023-10-06T12:03:38Z,42.805,6.029,13.3061,4.60117,2470.81,2023-10-06T14:06:02Z
2023-10-06T12:06:41Z,42.805,6.029,13.3063,4.60121,2470.787,2023-10-06T14:09:05Z
2023-10-06T12:09:44Z,42.805,6.029,13.3065,4.60117,2470.857,2023-10-06T14:12:08Z
2023-10-06T12:12:48Z,42.805,6.029,13.3048,4.60120,2470.824,2023-10-06T14:15:11Z
2023-10-06T12:15:51Z,42.805,6.029,13.3056,4.60126,2470.847,2023-10-06T14:18:14Z
2023-10-06T12:18:54Z,42.805,6.029,13.3058,4.60127,2470.81,2023-10-06T14:21:17Z
2023-10-06T12:21:57Z,42.805,6.029,13.3057,4.60132,2470.824,2023-10-06T14:24:21Z
2023-10-06T12:25:00Z,42.805,6.029,13.3052,4.60118,2470.81,2023-10-06T14:27:24Z
2023-10-06T12:28:03Z,42.805,6.029,13.3061,4.60117,2470.824,2023-10-06T14:30:27Z
2023-10-06T12:31:06Z,42.805,6.029,13.3056,4.60122,2470.833,2023-10-06T14:33:30Z
2023-10-06T12:34:09Z,42.805,6.029,13.3057,4.60120,2470.833,2023-10-06T14:36:33Z
2023-10-06T12:37:12Z,42.805,6.029,13.3058,4.60120,2470.81,2023-10-06T14:39:36Z
2023-10-06T12:40:15Z,42.805,6.029,13.3052,4.60114,2470.81,2023-10-06T14:42:39Z
2023-10-06T12:43:18Z,42.805,6.029,13.3062,4.60115,2470.8,2023-10-06T14:45:42Z
2023-10-06T12:46:21Z,42.805,6.029,13.3050,4.60117,2470.824,2023-10-06T14:48:45Z
2023-10-06T12:49:24Z,42.805,6.029,13.3050,4.60117,2470.81,2023-10-06T14:51:48Z
2023-10-06T12:52:28Z,42.805,6.029,13.3048,4.60127,2470.81,2023-10-06T14:54:51Z
2023-10-06T12:55:31Z,42.805,6.029,13.3059,4.60124,2470.787,2023-10-06T14:57:54Z
2023-10-06T12:58:34Z,42.805,6.029,13.3064,4.60121,2470.8,2023-10-06T15:00:58Z
2023-10-06T13:01:37Z,42.805,6.029,13.3053,4.60132,2470.824,2023-10-06T15:04:01Z
2023-10-06T13:04:40Z,42.805,6.029,13.3061,4.60113,2470.847,2023-10-06T15:07:04Z
2023-10-06T13:07:43Z,42.805,6.029,13.3049,4.60116,2470.824,2023-10-06T15:10:07Z
2023-10-06T13:10:46Z,42.805,6.029,13.3057,4.60119,2470.81,2023-10-06T15:13:10Z
2023-10-06T13:13:49Z,42.805,6.029,13.3048,4.60114,2470.81,2023-10-06T15:16:13Z
2023-10-06T13:16:52Z,42.805,6.029,13.3064,4.60122,2470.8,2023-10-06T15:19:16Z
2023-10-06T13:19:55Z,42.805,6.029,13.3061,4.60135,2470.787,2023-10-06T15:22:19Z
2023-10-06T13:22:58Z,42.805,6.029,13.3058,4.60122,2470.8,2023-10-06T15:25:22Z
2023-10-06T13:26:01Z,42.805,6.029,13.3050,4.60120,2470.824,2023-10-06T15:28:25Z
2023-10-06T13:29:05Z,42.805,6.029,13.3051,4.60123,2470.81,2023-10-06T15:31:28Z
2023-10-06T13:32:08Z,42.805,6.029,13.3054,4.60119,2470.833,2023-10-06T15:34:31Z
2023-10-06T13:35:11Z,42.805,6.029,13.3054,4.60118,2470.81,2023-10-06T15:37:34Z
2023-10-06T13:38:14Z,42.805,6.029,13.3054,4.60117,2470.787,2023-10-06T15:40:38Z
2023-10-06T13:41:17Z,42.805,6.029,13.3061,4.60125,2470.787,2023-10-06T15:43:41Z
2023-10-06T13:44:20Z,42.805,6.029,13.3063,4.60117,2470.81,2023-10-06T15:46:44Z
2023-10-06T13:47:23Z,42.805,6.029,13.3050,4.60120,2470.81,2023-10-06T15:49:47Z
2023-10-06T13:50:26Z,42.805,6.029,13.3051,4.60115,2470.81,2023-10-06T15:52:50Z
2023-10-06T13:53:29Z,42.805,6.029,13.3053,4.60119,2470.787,2023-10-06T15:55:53Z
2023-10-06T13:56:32Z,42.805,6.029,13.3059,4.60119,2470.824,2023-10-06T15:58:56Z
2023-10-06T13:59:35Z,42.805,6.029,13.3050,4.60117,2470.787,2023-10-06T16:01:59Z
2023-10-06T14:02:38Z,42.805,6.029,13.3048,4.60119,2470.787,2023-10-06T16:05:02Z
2023-10-06T14:05:41Z,42.805,6.029,13.3056,4.60118,2470.81,2023-10-06T16:08:05Z
2023-10-06T14:08:45Z,42.805,6.029,13.3056,4.60120,2470.824,2023-10-06T16:11:08Z
2023-10-06T14:11:48Z,42.805,6.029,13.3062,4.60117,2470.833,2023-10-06T16:14:11Z
2023-10-06T14:14:51Z,42.805,6.029,13.3052,4.60116,2470.824,2023-10-06T16:17:15Z
2023-10-06T14:17:54Z,42.805,6.029,13.3047,4.60109,2470.8,2023-10-06T16:20:18Z
2023-10-06T14:20:57Z,42.805,6.029,13.3048,4.60116,2470.824,2023-10-06T16:23:21Z
2023-10-06T14:24:00Z,42.805,6.029,13.3054,4.60119,2470.824,2023-10-06T16:26:24Z
2023-10-06T14:27:03Z,42.805,6.029,13.3051,4.60120,2470.787,2023-10-06T16:29:27Z
2023-10-06T14:30:09Z,42.805,6.029,13.3044,4.60112,2470.787,2023-10-06T16:32:30Z
2023-10-06T14:33:08Z,42.805,6.029,13.3053,4.60113,2470.8,2023-10-06T16:35:32Z
2023-10-06T14:36:11Z,42.805,6.029,13.3053,4.60119,2470.847,2023-10-06T16:38:35Z
2023-10-06T14:39:14Z,42.805,6.029,13.3052,4.60119,2470.847,2023-10-06T16:41:38Z
2023-10-06T14:42:17Z,42.805,6.029,13.3043,4.60113,2470.81,2023-10-06T16:44:41Z
2023-10-06T14:45:20Z,42.805,6.029,13.3045,4.60114,2470.81,2023-10-06T16:47:44Z
2023-10-06T14:48:23Z,42.805,6.029,13.3040,4.60130,2470.787,2023-10-06T16:50:47Z
2023-10-06T14:51:26Z,42.805,6.029,13.3047,4.60119,2470.81,2023-10-06T16:53:50Z
2023-10-06T14:54:30Z,42.805,6.029,13.3051,4.60117,2470.824,2023-10-06T16:56:53Z
2023-10-06T14:57:33Z,42.805,6.029,13.3047,4.60114,2470.833,2023-10-06T16:59:56Z
2023-10-06T15:00:36Z,42.805,6.029,13.3050,4.60116,2470.824,2023-10-06T17:03:00Z